FW9737 Weather Reports


time (UTC)temp
C
wind
direction
speed
KPH
gust
KPH
rain 1hr
cm
rain 24hr
cm
rain mn
cm
humidity
%
barometer
mb
20260504110517 7 0 0.0 3.2 0.00 0.00 0.00 77 1015.8
20260504100516 8 360 1.6 3.2 0.00 0.00 0.00 74 1015.5
20260504081533 8 360 0.0 3.2 0.00 0.00 0.00 69 1015.9
20260504081022 8 0 0.0 3.2 0.00 0.00 0.00 69 1015.8
20260504080517 8 0 0.0 3.2 0.00 0.00 0.00 69 1015.9
20260504050521 8 360 1.6 3.2 0.00 0.00 0.00 66 1016.4
20260504045517 8 0 0.0 0.0 0.00 0.00 0.00 66 1016.3
20260504045017 8 0 0.0 1.6 0.00 0.00 0.00 65 1016.2
20260504044539 8 0 0.0 3.2 0.00 0.00 0.00 64 1016.2
20260504044017 8 0 0.0 3.2 0.00 0.00 0.00 64 1016.1
20260504043518 8 360 0.0 3.2 0.00 0.00 0.00 62 1016.0
20260504043036 8 360 0.0 3.2 0.00 0.00 0.00 62 1015.9
20260504042518 8 0 0.0 3.2 0.00 0.00 0.00 62 1015.8
20260504042017 8 360 0.0 3.2 0.00 0.00 0.00 64 1015.8
20260504041535 8 0 0.0 3.2 0.00 0.00 0.00 66 1015.8
20260504041017 8 0 0.0 3.2 0.00 0.00 0.00 63 1015.9
20260504040517 8 360 0.0 3.2 0.00 0.00 0.00 62 1015.8
20260504040058 8 0 0.0 0.0 0.00 0.00 0.00 63 1015.8
20260504035518 8 0 0.0 1.6 0.00 0.00 0.00 65 1015.8
20260504035017 8 0 0.0 1.6 0.00 0.00 0.00 61 1015.9
20260504034534 8 0 0.0 3.2 0.00 0.00 0.00 61 1016.0
20260504034016 8 0 0.0 3.2 0.00 0.00 0.00 59 1016.0
20260504033516 9 360 0.0 3.2 0.00 0.00 0.00 59 1016.0
20260504033035 9 360 1.6 3.2 0.00 0.00 0.00 59 1016.0
20260504032516 10 360 0.0 3.2 0.00 0.00 0.00 58 1016.0
20260504032017 10 360 1.6 3.2 0.00 0.00 0.00 52 1016.1
20260504031535 10 0 0.0 3.2 0.00 0.00 0.00 53 1016.0
20260504031016 11 0 0.0 3.2 0.00 0.00 0.00 51 1016.1
20260504030516 11 360 1.6 3.2 0.00 0.00 0.00 47 1016.0
20260504030034 12 360 0.0 4.8 0.00 0.00 0.00 48 1016.0
20260504025518 12 0 1.6 6.4 0.00 0.00 0.00 42 1015.9
20260504025016 12 360 1.6 6.4 0.00 0.00 0.00 42 1016.0
20260504024531 12 360 3.2 8.0 0.00 0.00 0.00 42 1016.0
20260504024015 12 360 4.8 9.7 0.00 0.00 0.00 42 1016.0
20260504023514 12 360 4.8 9.7 0.00 0.00 0.00 42 1016.0
20260504023032 12 360 4.8 9.7 0.00 0.00 0.00 41 1016.0
20260504022515 12 360 4.8 9.7 0.00 0.00 0.00 41 1016.0
20260504022015 12 360 3.2 9.7 0.00 0.00 0.00 40 1015.8
20260504021535 12 360 3.2 9.7 0.00 0.00 0.00 40 1015.8
20260504021018 12 360 4.8 9.7 0.00 0.00 0.00 39 1015.9
20260504020514 12 360 4.8 9.7 0.00 0.00 0.00 39 1015.9
20260504020034 12 360 4.8 9.7 0.00 0.00 0.00 39 1015.8
20260504015516 13 360 3.2 12.9 0.00 0.00 0.00 38 1015.9
20260504015015 13 360 4.8 12.9 0.00 0.00 0.00 37 1015.7
20260504014537 13 360 4.8 14.5 0.00 0.00 0.00 37 1015.7
20260504014016 13 360 6.4 14.5 0.00 0.00 0.00 37 1015.6
20260504013517 13 360 4.8 14.5 0.00 0.00 0.00 36 1015.6
20260504013030 13 360 4.8 9.7 0.00 0.00 0.00 36 1015.5
20260504012514 13 360 4.8 9.7 0.00 0.00 0.00 35 1015.5
20260504012017 13 360 4.8 9.7 0.00 0.00 0.00 34 1015.4
20260504011530 13 360 4.8 8.0 0.00 0.00 0.00 34 1015.4
20260504011014 13 360 3.2 6.4 0.00 0.00 0.00 34 1015.4
20260504010514 13 360 3.2 8.0 0.00 0.00 0.00 34 1015.4
20260504010032 13 360 4.8 8.0 0.00 0.00 0.00 34 1015.4
20260504005514 13 360 3.2 6.4 0.00 0.00 0.00 33 1015.3
20260504005013 13 360 3.2 4.8 0.00 0.00 0.00 34 1015.2
20260504004542 13 360 1.6 4.8 0.00 0.00 0.00 33 1015.1
20260504004016 13 360 3.2 4.8 0.00 0.00 0.00 34 1015.1
20260504003514 13 360 1.6 4.8 0.00 0.00 0.00 34 1015.1
20260504003031 13 360 3.2 4.8 0.00 0.00 0.00 34 1015.1
20260504002517 13 360 3.2 4.8 0.00 0.00 0.00 34 1015.1
20260504002016 13 360 3.2 4.8 0.00 0.00 0.00 34 1015.1
20260504001531 14 360 3.2 4.8 0.00 0.00 0.00 34 1015.0
20260504001014 14 360 1.6 4.8 0.00 0.00 0.00 35 1015.1
20260504000513 14 360 3.2 4.8 0.00 0.00 0.00 34 1015.2
20260504000031 15 360 1.6 4.8 0.00 0.00 0.00 33 1015.2
20260503235513 15 360 1.6 4.8 0.00 0.00 0.00 34 1015.1
20260503235019 15 360 1.6 4.8 0.00 0.00 0.00 33 1015.2
20260503234533 16 360 1.6 4.8 0.00 0.00 0.00 33 1015.1
20260503234017 16 360 1.6 4.8 0.00 0.00 0.00 33 1015.0
20260503233513 16 360 1.6 3.2 0.00 0.00 0.00 32 1015.0
20260503233033 17 360 0.0 3.2 0.00 0.00 0.00 31 1015.0
20260503232515 17 0 0.0 4.8 0.00 0.00 0.00 32 1015.1
20260503232015 17 0 0.0 6.4 0.00 0.00 0.00 28 1015.0
20260503231534 17 360 0.0 6.4 0.00 0.00 0.00 28 1014.9
20260503231014 17 360 3.2 8.0 0.00 0.00 0.00 26 1014.8
20260503230517 17 360 1.6 9.7 0.00 0.00 0.00 27 1014.9
20260503230035 17 360 4.8 9.7 0.00 0.00 0.00 26 1014.9
20260503225516 17 360 4.8 9.7 0.00 0.00 0.00 26 1014.9
20260503225017 17 360 3.2 9.7 0.00 0.00 0.00 27 1014.8
20260503224531 17 360 4.8 9.7 0.00 0.00 0.00 26 1014.7
20260503224014 17 360 3.2 9.7 0.00 0.00 0.00 25 1014.7
20260503223514 17 360 4.8 12.9 0.00 0.00 0.00 25 1014.8
20260503223031 17 360 3.2 16.1 0.00 0.00 0.00 27 1014.8
20260503222512 17 360 4.8 16.1 0.00 0.00 0.00 27 1014.9
20260503222015 17 360 8.0 16.1 0.00 0.00 0.00 27 1014.9
20260503221534 17 360 3.2 12.9 0.00 0.00 0.00 28 1015.0
20260503221014 17 360 3.2 12.9 0.00 0.00 0.00 27 1015.0
20260503220519 17 360 4.8 16.1 0.00 0.00 0.00 28 1015.1
20260503220030 17 360 4.8 16.1 0.00 0.00 0.00 27 1015.0
20260503215514 17 360 4.8 14.5 0.00 0.00 0.00 27 1015.0
20260503215015 17 360 6.4 14.5 0.00 0.00 0.00 27 1015.0
20260503214534 17 360 4.8 17.7 0.00 0.00 0.00 28 1015.0
20260503214017 17 360 6.4 17.7 0.00 0.00 0.00 27 1015.0
20260503213515 17 360 4.8 14.5 0.00 0.00 0.00 27 1015.0
20260503213032 17 360 4.8 14.5 0.00 0.00 0.00 28 1015.0
20260503212516 17 360 6.4 14.5 0.00 0.00 0.00 29 1015.1
20260503212014 17 360 4.8 17.7 0.00 0.00 0.00 28 1015.0
20260503211531 17 360 6.4 17.7 0.00 0.00 0.00 30 1015.1
20260503211020 17 360 6.4 17.7 0.00 0.00 0.00 29 1015.2
20260503210514 17 360 9.7 20.9 0.00 0.00 0.00 30 1015.1
20260503210033 17 360 8.0 20.9 0.00 0.00 0.00 28 1015.2
20260503205517 17 360 4.8 14.5 0.00 0.00 0.00 31 1015.2
20260503205016 17 360 6.4 19.3 0.00 0.00 0.00 30 1015.1
20260503204533 17 360 6.4 19.3 0.00 0.00 0.00 30 1015.3
20260503204019 16 360 8.0 19.3 0.00 0.00 0.00 30 1015.3
20260503203518 16 360 8.0 25.7 0.00 0.00 0.00 31 1015.3
20260503203034 16 360 6.4 25.7 0.00 0.00 0.00 29 1015.3
20260503202516 16 360 8.0 25.7 0.00 0.00 0.00 28 1015.4
20260503202013 16 360 1.6 17.7 0.00 0.00 0.00 30 1015.3
20260503201532 16 360 4.8 22.5 0.00 0.00 0.00 30 1015.4
20260503201014 16 360 9.7 22.5 0.00 0.00 0.00 30 1015.5
20260503200514 16 360 12.9 22.5 0.00 0.00 0.00 30 1015.6
20260503200035 16 360 6.4 16.1 0.00 0.00 0.00 31 1015.6
20260503195514 16 360 6.4 25.7 0.00 0.00 0.00 31 1015.6
20260503195016 16 360 8.0 25.7 0.00 0.00 0.00 32 1015.7
20260503194534 16 360 8.0 20.9 0.00 0.00 0.00 31 1015.7
20260503194015 16 360 8.0 22.5 0.00 0.00 0.00 29 1015.8
20260503193517 16 360 9.7 22.5 0.00 0.00 0.00 29 1016.0
20260503193040 16 360 9.7 22.5 0.00 0.00 0.00 30 1016.1
20260503192515 15 360 11.3 24.1 0.00 0.00 0.00 32 1016.3
20260503192019 15 360 9.7 24.1 0.00 0.00 0.00 31 1016.3
20260503191530 15 360 11.3 19.3 0.00 0.00 0.00 31 1016.4
20260503191018 15 360 4.8 25.7 0.00 0.00 0.00 31 1016.4
20260503190513 15 360 12.9 25.7 0.00 0.00 0.00 31 1016.6
20260503190032 15 360 11.3 20.9 0.00 0.00 0.00 33 1016.8
20260503185514 15 360 6.4 20.9 0.00 0.00 0.00 32 1016.7
20260503185017 15 360 8.0 22.5 0.00 0.00 0.00 32 1016.8
20260503184530 15 360 11.3 22.5 0.00 0.00 0.00 33 1016.9
20260503184017 15 360 9.7 29.0 0.00 0.00 0.00 34 1017.0
20260503183517 15 360 6.4 29.0 0.00 0.00 0.00 36 1016.9
20260503183029 15 360 9.7 24.1 0.00 0.00 0.00 33 1017.0
20260503182514 15 360 11.3 20.9 0.00 0.00 0.00 34 1017.0
20260503182014 14 360 0.0 12.9 0.00 0.00 0.00 35 1016.8
20260503181532 14 360 1.6 24.1 0.00 0.00 0.00 34 1017.0
20260503181014 14 360 9.7 24.1 0.00 0.00 0.00 36 1017.0
20260503180517 14 360 8.0 19.3 0.00 0.00 0.00 37 1017.0
20260503180034 14 360 6.4 14.5 0.00 0.00 0.00 35 1017.0
20260503175516 13 360 3.2 16.1 0.00 0.00 0.00 38 1017.1
20260503175016 13 360 4.8 20.9 0.00 0.00 0.00 36 1017.1
20260503174533 13 360 9.7 20.9 0.00 0.00 0.00 34 1017.1
20260503174016 13 360 11.3 20.9 0.00 0.00 0.00 38 1017.3
20260503173513 13 360 4.8 16.1 0.00 0.00 0.00 38 1017.3
20260503173030 13 360 6.4 20.9 0.00 0.00 0.00 39 1017.4
20260503172514 13 360 8.0 20.9 0.00 0.00 0.00 36 1017.4
20260503172013 13 360 8.0 20.9 0.00 0.00 0.00 38 1017.5
20260503171536 13 360 3.2 16.1 0.00 0.00 0.00 38 1017.5
20260503171014 13 360 6.4 16.1 0.00 0.00 0.00 38 1017.6
20260503170514 12 360 3.2 16.1 0.00 0.00 0.00 40 1017.6
20260503150514 10 360 11.3 20.9 0.00 0.00 0.00 44 1018.5
20260503131016 7 360 9.7 16.1 0.00 0.00 0.00 55 1018.6
20260503130514 7 360 6.4 19.3 0.00 0.00 0.00 57 1018.6